Regional Weather Roundup
Issued by NWS

Home | Current Version | Previous Version | Text Only | Print | Product List | Glossary Off
Versions: 1 2 3 4 5 6 7 8 9 10 11 12 13 14 15 16 17 18 19 20 21 22 23 24 25 26 27 28 29 30 31 32 33 34 35 36 37 38 39 40 41 42 43 44 45 46 47 48 49 50

000
ASUS43 KOAX 270702
RWRNE

WEATHER ROUNDUP FOR NEBRASKA
NATIONAL WEATHER SERVICE OMAHA NE
100 AM CST MON FEB 27 2017

NOTES: SATELLITE DATA IS BEING USED TO AUGMENT CLOUD COVER ABOVE
       12000 FEET.
       "FAIR" INDICATES FEW OR NO CLOUDS BELOW 12,000 FEET WITH NO
       SIGNIFICANT WEATHER AND/OR OBSTRUCTIONS TO VISIBILITY.

  * THESE STATIONS DO NOT REPORT WEATHER SUCH AS RAIN...SNOW OR FOG.

NEZ001>004-019>022-054>056-270800-
NEBRASKA PANHANDLE

CITY           SKY/WX    TMP DP  RH WIND       PRES   REMARKS
SCOTTSBLUFF    CLOUDY    15   6  67 E10       29.79F WCI   2
ALLIANCE       CLOUDY     8   2  76 S5        29.79F WCI   0
CHADRON        CLOUDY     9   1  70 CALM      29.77F
KIMBALL        CLOUDY    20  13  74 SE5       29.76F WCI  14
SIDNEY         CLEAR     20  12  71 S13       29.80F WCI   7
$$

NEZ057>060-069>072-079>082-270800-
SOUTHWEST NEBRASKA

CITY           SKY/WX    TMP DP  RH WIND       PRES   REMARKS
NORTH PLATTE   CLEAR     17  10  74 E3        29.88F
IMPERIAL       CLEAR     21  11  65 SE3       29.86F
LEXINGTON      CLEAR     19  15  82 NE3       29.91F
MCCOOK         CLEAR     20  10  65 CALM      29.89F
OGALLALA       CLOUDY    19  12  76 CALM      29.86S
$$

NEZ005>010-023>029-035>040-094-270800-
NORTH CENTRAL NEBRASKA

CITY           SKY/WX    TMP DP  RH WIND       PRES   REMARKS
VALENTINE      CLOUDY     8   3  80 W3        29.84F
AINSWORTH      CLEAR     16  11  80 S9        29.86S WCI   4
BROKEN BOW     CLEAR     17  12  80 CALM      29.90F
O`NEILL        CLEAR     18  13  79 SW6       29.90S WCI  10
ORD            CLEAR     16  10  77 CALM      29.91F
THEDFORD       PTCLDY    18  12  78 CALM      29.87S
$$

NEZ041-046>049-061>064-073>077-083>087-270800-
SOUTH CENTRAL NEBRASKA

CITY           SKY/WX    TMP DP  RH WIND       PRES   REMARKS
GRAND ISLAND   CLEAR     27  16  63 S7        29.94F WCI  19
AURORA         CLEAR     26  17  69 S3        29.95S
HASTINGS       CLEAR     23  15  71 CALM      29.95F
HEBRON         CLEAR     22  18  85 CALM      29.98S
HOLDREGE       CLEAR     24  11  56 SE3       29.91F
KEARNEY *      CLEAR     21  14  73 CALM      29.93F
YORK           CLEAR     27  25  93 S7        29.96F WCI  19
$$

NEZ011>018-030>034-042>045-270800-
NORTHEAST NEBRASKA

CITY           SKY/WX    TMP DP  RH WIND       PRES   REMARKS
NORFOLK        CLEAR     26  19  74 S7        29.93F WCI  18
ALBION         CLEAR     21  16  81 CALM      29.94S
BLAIR          CLEAR     29  23  78 S5        29.98S WCI  24
FREMONT        CLEAR     29  22  75 SE5       29.98F WCI  24
TEKAMAH        CLEAR     21  19  92 S5        29.99S WCI  15
WAYNE          CLEAR     22  18  82 S6        29.95S WCI  15
$$

NEZ050>053-065>068-078-088>093-270800-
SOUTHEAST NEBRASKA

CITY           SKY/WX    TMP DP  RH WIND       PRES   REMARKS
LINCOLN        CLEAR     24  20  84 CALM      30.00F
OMAHA EPPLEY   CLEAR     28  22  78 S3        30.00F
BEATRICE       CLEAR     24  19  82 CALM      29.99S
FALLS CITY     CLEAR     28  20  71 SE3       30.00S
NEBRASKA CITY  CLEAR     31  18  58 S5        29.99F WCI  26
PLATTSMOUTH    CLEAR     30  19  64 SE6       30.00S WCI  24
$$

NEZ044-045-051>053-067-270800-
OMAHA AREA

CITY           SKY/WX    TMP DP  RH WIND       PRES   REMARKS
OMAHA EPPLEY   CLEAR     28  22  78 S3        30.00F
BLAIR          CLEAR     29  23  78 S5        29.98S WCI  24
FREMONT        CLEAR     29  22  75 SE5       29.98F WCI  24
MILLARD        CLEAR     27  25  90 CALM      30.00S
PLATTSMOUTH    CLEAR     30  19  64 SE6       30.00S WCI  24
WAHOO          FAIR      25  20  83 CALM      29.99S
$$




USA.gov is the U.S. government's official web portal to all federal, state and local government web resources and services.